Liberal, Kansas, United States (67901)
Lat: 37.04N, Lon: 100.92W
Wx Zone: KSZ086
Local Info
Past Weather Observations for Wednesday, May 20, 2015

NOTE: This archive is for the closest National Weather Service station to Liberal. Information may differ from the station used for current weather conditions.

Click here for Long-term Archive

Time Weather Temperature Dewpoint Humidity Pressure Winds Precip Visibility
23:55
Overcast
48°F / 9°C 39°F / 4°C 71% 30.33 in
(1027 mb)
NE 8.1 mph
(NE 13 kph)
- 10SM
23:35
Overcast
48°F / 9°C 39°F / 4°C 71% 30.33 in
(1027 mb)
NE 9.2 mph
(NE 15 kph)
- 10SM
23:15
Overcast
48°F / 9°C 39°F / 4°C 71% 30.33 in
(1027 mb)
NNE 8.1 mph
(NNE 13 kph)
- 10SM
22:55
Overcast
48°F / 9°C 39°F / 4°C 71% 30.33 in
(1027 mb)
NE 9.2 mph
(NE 15 kph)
- 10SM
22:35
Overcast
48°F / 9°C 39°F / 4°C 71% 30.33 in
(1027 mb)
NE 9.2 mph
(NE 15 kph)
- 10SM
22:15
Overcast
50°F / 10°C 39°F / 4°C 67% 30.33 in
(1027 mb)
NE 6.9 mph
(NE 11 kph)
- 10SM
21:55
Overcast
50°F / 10°C 39°F / 4°C 67% 30.33 in
(1027 mb)
NE 8.1 mph
(NE 13 kph)
- 10SM
21:35
Overcast
50°F / 10°C 39°F / 4°C 67% 30.3 in
(1026 mb)
ENE 9.2 mph
(ENE 15 kph)
- 10SM
21:15
Overcast
50°F / 10°C 39°F / 4°C 67% 30.3 in
(1026 mb)
ENE 10.4 mph
(ENE 17 kph)
- 10SM
20:55
Overcast
50°F / 10°C 39°F / 4°C 67% 30.3 in
(1026 mb)
ENE 11.5 mph
(ENE 19 kph)
- 10SM
20:35
Overcast
52°F / 11°C 39°F / 4°C 62% 30.27 in
(1025 mb)
NE 11.5 mph
(NE 19 kph)
- 10SM
20:15
Overcast
52°F / 11°C 39°F / 4°C 62% 30.27 in
(1025 mb)
NE 15 mph
(NE 24 kph)
- 10SM
19:55
Overcast
52°F / 11°C 39°F / 4°C 62% 30.27 in
(1025 mb)
NE 11.5 mph
(NE 19 kph)
- 10SM
19:35
Overcast
52°F / 11°C 39°F / 4°C 62% 30.24 in
(1024 mb)
NE 11.5 mph
(NE 19 kph)
- 10SM
19:15
Overcast
54°F / 12°C 41°F / 5°C 63% 30.24 in
(1024 mb)
NE 12.7 mph
(NE 20 kph)
- 10SM
18:55
Overcast
54°F / 12°C 41°F / 5°C 63% 30.24 in
(1024 mb)
NE 11.5 mph
(NE 19 kph)
- 10SM
18:35
Overcast
54°F / 12°C 43°F / 6°C 67% 30.24 in
(1024 mb)
NE 13.8 mph
(NE 22 kph)
- 10SM
18:15
Overcast
54°F / 12°C 43°F / 6°C 67% 30.24 in
(1024 mb)
NE 13.8 mph
(NE 22 kph)
- 10SM
17:55
Overcast
54°F / 12°C 43°F / 6°C 67% 30.24 in
(1024 mb)
NE 12.7 mph
(NE 20 kph)
- 10SM
17:35
Overcast
55°F / 13°C 43°F / 6°C 63% 30.24 in
(1024 mb)
NE 12.7 mph
(NE 20 kph)
- 10SM
17:15
Overcast
55°F / 13°C 43°F / 6°C 63% 30.24 in
(1024 mb)
NNE 13.8 mph
(NNE 22 kph)
- 10SM
16:55
Overcast
55°F / 13°C 43°F / 6°C 63% 30.24 in
(1024 mb)
NE 10.4 mph
(NE 17 kph)
- 10SM
16:35
Overcast
55°F / 13°C 43°F / 6°C 63% 30.24 in
(1024 mb)
NE 15 mph
(NE 24 kph)
- 10SM
16:15
Overcast
55°F / 13°C 43°F / 6°C 63% 30.24 in
(1024 mb)
NNE 12.7 mph
(NNE 20 kph)
- 10SM
15:55
Overcast
55°F / 13°C 45°F / 7°C 67% 30.24 in
(1024 mb)
N 13.8 mph
(N 22 kph)
- 10SM
15:35
Overcast
55°F / 13°C 45°F / 7°C 67% 30.24 in
(1024 mb)
N 12.7 mph
(N 20 kph)
- 10SM
15:15
Overcast
54°F / 12°C 45°F / 7°C 72% 30.24 in
(1024 mb)
NE 13.8 mph
(NE 22 kph)
- 10SM
14:55
Overcast
54°F / 12°C 45°F / 7°C 72% 30.27 in
(1025 mb)
NE 12.7 mph
(NE 20 kph)
- 10SM
14:35
Overcast
54°F / 12°C 43°F / 6°C 67% 30.27 in
(1025 mb)
NE 15 mph
(NE 24 kph)
- 10SM
14:15
Overcast
54°F / 12°C 43°F / 6°C 67% 30.27 in
(1025 mb)
NNE 12.7 mph
(NNE 20 kph)
- 10SM
13:55
Overcast
54°F / 12°C 43°F / 6°C 67% 30.27 in
(1025 mb)
NE 15 mph
(NE 24 kph)
- 10SM
13:35
Overcast
54°F / 12°C 45°F / 7°C 72% 30.27 in
(1025 mb)
NNE 13.8 mph
(NNE 22 kph)
- 10SM
13:15
Overcast
54°F / 12°C 43°F / 6°C 67% 30.24 in
(1024 mb)
NNE 17.3 mph
(NNE 28 kph)
- 10SM
12:55
Overcast
54°F / 12°C 43°F / 6°C 67% 30.27 in
(1025 mb)
NNE 15 mph
(NNE 24 kph)
- 10SM
12:35
Overcast
52°F / 11°C 43°F / 6°C 72% 30.24 in
(1024 mb)
NNE 18.4 mph
(NNE 30 kph)
- 10SM
12:15
Mostly Cloudy
52°F / 11°C 43°F / 6°C 72% 30.27 in
(1025 mb)
N 19.6 mph
(N 32 kph)
- 10SM
11:55
Mostly Cloudy
52°F / 11°C 43°F / 6°C 72% 30.27 in
(1025 mb)
NNE 18.4 mph
(NNE 30 kph)
- 10SM
11:35
Overcast
52°F / 11°C 43°F / 6°C 72% 30.27 in
(1025 mb)
NNE 18.4 mph
(NNE 30 kph)
- 10SM
11:15
Mostly Cloudy
50°F / 10°C 43°F / 6°C 76% 30.27 in
(1025 mb)
NNE 16.1 mph
(NNE 26 kph)
- 10SM
10:55
Mostly Cloudy
48°F / 9°C 41°F / 5°C 76% 30.27 in
(1025 mb)
NE 16.1 mph
(NE 26 kph)
- 10SM
10:35
Overcast
46°F / 8°C 39°F / 4°C 76% 30.27 in
(1025 mb)
N 18.4 mph
(N 30 kph)
- 10SM
10:15
Overcast
46°F / 8°C 39°F / 4°C 76% 30.27 in
(1025 mb)
NNE 18.4 mph
(NNE 30 kph)
- 10SM
09:55
Overcast
45°F / 7°C 39°F / 4°C 81% 30.27 in
(1025 mb)
N 15 mph
(N 24 kph)
- 10SM
09:35
Overcast
45°F / 7°C 39°F / 4°C 81% 30.24 in
(1024 mb)
N 17.3 mph
(N 28 kph)
- 10SM
09:15
Overcast
45°F / 7°C 37°F / 3°C 76% 30.24 in
(1024 mb)
N 18.4 mph
(N 30 kph)
- 10SM
08:55
Overcast
45°F / 7°C 39°F / 4°C 81% 30.24 in
(1024 mb)
N 17.3 mph
(N 28 kph)
- 10SM
08:35
Overcast
45°F / 7°C 37°F / 3°C 76% 30.24 in
(1024 mb)
N 17.3 mph
(N 28 kph)
- 10SM
08:15
Overcast
45°F / 7°C 39°F / 4°C 81% 30.24 in
(1024 mb)
N 17.3 mph
(N 28 kph)
- 10SM
07:55
Overcast
45°F / 7°C 37°F / 3°C 76% 30.24 in
(1024 mb)
N 11.5 mph
(N 19 kph)
- 10SM
07:35
Overcast
45°F / 7°C 39°F / 4°C 81% 30.24 in
(1024 mb)
N 15 mph
(N 24 kph)
- 10SM
07:15
Overcast
45°F / 7°C 39°F / 4°C 81% 30.21 in
(1023 mb)
N 16.1 mph
(N 26 kph)
- 10SM
06:55
Overcast
43°F / 6°C 37°F / 3°C 81% 30.21 in
(1023 mb)
N 15 mph
(N 24 kph)
- 10SM
06:35
Overcast
43°F / 6°C 37°F / 3°C 81% 30.21 in
(1023 mb)
N 12.7 mph
(N 20 kph)
- 10SM
06:15
Overcast
43°F / 6°C 37°F / 3°C 81% 30.21 in
(1023 mb)
N 13.8 mph
(N 22 kph)
- 10SM
05:55
Overcast
43°F / 6°C 37°F / 3°C 81% 30.18 in
(1022 mb)
N 12.7 mph
(N 20 kph)
- 10SM
05:35
Overcast
43°F / 6°C 37°F / 3°C 81% 30.18 in
(1022 mb)
N 13.8 mph
(N 22 kph)
- 10SM
05:15
Overcast
43°F / 6°C 37°F / 3°C 81% 30.18 in
(1022 mb)
N 15 mph
(N 24 kph)
- 10SM
04:55
Overcast
43°F / 6°C 37°F / 3°C 81% 30.18 in
(1022 mb)
N 12.7 mph
(N 20 kph)
- 10SM
04:35
Overcast
43°F / 6°C 37°F / 3°C 81% 30.15 in
(1021 mb)
N 15 mph
(N 24 kph)
- 10SM
04:15
Overcast
43°F / 6°C 37°F / 3°C 81% 30.15 in
(1021 mb)
N 16.1 mph
(N 26 kph)
- 10SM
03:55
Overcast
43°F / 6°C 37°F / 3°C 81% 30.15 in
(1021 mb)
N 15 mph
(N 24 kph)
- 10SM
03:35
Overcast
43°F / 6°C 37°F / 3°C 81% 30.15 in
(1021 mb)
N 16.1 mph
(N 26 kph)
- 10SM
03:15
Overcast
43°F / 6°C 37°F / 3°C 81% 30.15 in
(1021 mb)
N 17.3 mph
(N 28 kph)
- 10SM
02:55
Overcast
43°F / 6°C 37°F / 3°C 81% 30.12 in
(1020 mb)
N 20.7 mph
(N 33 kph)
- 10SM
02:35
Overcast
43°F / 6°C 37°F / 3°C 81% 30.12 in
(1020 mb)
N 20.7 mph
(N 33 kph)
- 10SM
02:15
Overcast
43°F / 6°C 37°F / 3°C 81% 30.12 in
(1020 mb)
N 17.3 mph
(N 28 kph)
- 10SM
01:55
Overcast
43°F / 6°C 37°F / 3°C 81% 30.12 in
(1020 mb)
N 19.6 mph
(N 32 kph)
- 10SM
01:35
Overcast
43°F / 6°C 37°F / 3°C 81% 30.12 in
(1020 mb)
N 19.6 mph
(N 32 kph)
- 10SM
01:15
Overcast
43°F / 6°C 37°F / 3°C 81% 30.12 in
(1020 mb)
N 18.4 mph
(N 30 kph)
- 10SM
00:55
Overcast
45°F / 7°C 37°F / 3°C 76% 30.12 in
(1020 mb)
N 20.7 mph
(N 33 kph)
- 8SM
00:35
Overcast
45°F / 7°C 37°F / 3°C 76% 30.15 in
(1021 mb)
N 18.4 mph
(N 30 kph)
- 8SM
00:15
Overcast
45°F / 7°C 39°F / 4°C 81% 30.15 in
(1021 mb)
N 21.9 mph
(N 35 kph)
- 10SM
Time Weather Temperature Dewpoint Humidity Pressure Winds Precip Visibility


Weather for websites

WeatherForYou.com, LLC is not responsible for any damages or problems caused by this service. Current weather conditions are obtained from the closest station including government and personal stations which may have varying degrees of accuracy. Weather forecasts are derived from the NOAA NDFD. Like all things, this site belongs to Jesus Christ... He just trusts us to maintain it. If you have any questions or comments email webmaster@weatherforyou.com

Copyright © 2015, WeatherForYou.com LLC. All rights reserved.